Klawock, AK

5:24 PM AKST on January 16, 2018 (GMT -0900)
Klawock

Weather History for PAKW - September, 2013

Change the Weather History Date:

Saturday, September 7, 2013

  Actual Average Record
Temperature  
Mean Temperature 59 °F -  
Max Temperature 70 °F 58 °F 70 °F (2013)
Min Temperature 50 °F 46 °F 41 °F (2012)
Degree Days  
Heating Degree Days 6    
Growing Degree Days 9 (Base 50)    
Moisture  
Dew Point 55 °F    
Average Humidity 86    
Maximum Humidity 100    
Minimum Humidity 70    
Precipitation  
Precipitation 0.09 in - - ()
Sea Level Pressure  
Sea Level Pressure 30.02 in    
Wind  
Wind Speed 2 mph (SW)    
Max Wind Speed 9 mph    
Max Gust Speed -    
Visibility 10 miles    
Events Rain    
Averages and records for this station are not official NWS values.
T = Trace of Precipitation, MM = Missing Value Source: NWS Daily Summary

Daily Weather History Graph

Daily Weather History Graph

Search for Another Location

Airport or City:

Trip Planner

Search our weather history database for the weather conditions in past years. The results will help you decide how hot, cold, wet, or windy it might be!

Date:

Astronomy

Sep. 07, 2013 Rise Set
Actual Time 6:09 AM AKDT 7:29 PM AKDT
Civil Twilight 5:31 AM AKDT 8:07 PM AKDT
Nautical Twilight 4:44 AM AKDT 8:53 PM AKDT
Astronomical Twilight 3:52 AM AKDT 9:45 PM AKDT
Moon 9:06 AM AKDT (9/7) 7:53 PM AKDT (9/7)
Length of Visible Light 14h 35m
Length of Day
13h 19m
Waxing Crescent, 6% of the Moon is Illuminated
Sep 7
Waxing Crescent
Sep 12
First Quarter
Sep 19
Full
Sep 26
Last Quarter
Oct 4
New

Hourly Weather History & Observations

Time (AKDT) Temp. Dew Point Humidity Pressure Visibility Wind Dir Wind Speed Gust Speed Precip Events Conditions
12:53 AM 53.1 °F 51.1 °F 93% 30.13 in 10.0 mi Calm Calm - N/A   Clear
1:53 AM 52.0 °F 50.0 °F 93% 30.13 in 10.0 mi Calm Calm - N/A   Clear
2:53 AM 52.0 °F 51.1 °F 97% 30.13 in 10.0 mi Calm Calm - N/A   Clear
3:53 AM 52.0 °F 51.1 °F 97% 30.12 in 10.0 mi Calm Calm - N/A   Clear
4:53 AM 51.1 °F 50.0 °F 96% 30.11 in 10.0 mi Calm Calm - N/A   Clear
5:45 AM 50.0 °F 48.2 °F 94% 30.10 in 10.0 mi Calm Calm - N/A   Scattered Clouds
5:53 AM 51.1 °F 50.0 °F 96% 30.10 in 4.0 mi Calm Calm - N/A   Mostly Cloudy
6:53 AM 53.1 °F 52.0 °F 96% 30.10 in 10.0 mi Calm Calm - N/A   Overcast
7:13 AM 53.6 °F 53.6 °F 100% 30.10 in 10.0 mi Calm Calm - N/A   Overcast
7:53 AM 55.9 °F 54.0 °F 93% 30.09 in 10.0 mi Calm Calm - N/A   Overcast
8:53 AM 57.9 °F 55.9 °F 93% 30.07 in 10.0 mi Calm Calm - N/A   Overcast
9:53 AM 60.1 °F 55.9 °F 86% 30.06 in 10.0 mi Calm Calm - N/A   Overcast
10:34 AM 62.6 °F 57.2 °F 82% 30.05 in 10.0 mi Calm Calm - N/A   Scattered Clouds
10:53 AM 64.0 °F 57.0 °F 78% 30.04 in 10.0 mi Calm Calm - N/A   Clear
11:53 AM 66.0 °F 57.9 °F 75% 30.04 in 10.0 mi SW 6.9 mph - N/A   Clear
12:53 PM 66.0 °F 57.9 °F 75% 30.03 in 10.0 mi SW 9.2 mph - N/A   Clear
1:53 PM 66.9 °F 57.9 °F 73% 30.01 in 10.0 mi WSW 5.8 mph - N/A   Clear
2:53 PM 68.0 °F 57.9 °F 70% 29.99 in 10.0 mi SW 5.8 mph - N/A   Clear
3:53 PM 68.0 °F 57.9 °F 70% 29.98 in 10.0 mi SW 4.6 mph - N/A   Clear
4:53 PM 64.9 °F 57.9 °F 78% 29.96 in 10.0 mi WSW 4.6 mph - N/A   Clear
5:53 PM 64.0 °F 57.0 °F 78% 29.96 in 10.0 mi Calm Calm - N/A   Clear
6:53 PM 62.1 °F 57.0 °F 84% 29.94 in 10.0 mi WSW 5.8 mph - N/A   Partly Cloudy
7:53 PM 61.0 °F 57.0 °F 87% 29.91 in 10.0 mi Calm Calm - N/A   Partly Cloudy
8:15 PM 60.8 °F 57.2 °F 88% 29.91 in 10.0 mi Calm Calm - N/A   Mostly Cloudy
8:53 PM 60.1 °F 57.0 °F 90% 29.90 in 10.0 mi SSW 4.6 mph - N/A   Overcast
9:53 PM 64.0 °F 57.0 °F 78% 29.88 in 10.0 mi South 8.1 mph - N/A   Clear
10:53 PM 66.0 °F 57.0 °F 73% 29.87 in 10.0 mi SSE 8.1 mph - N/A   Overcast
11:53 PM 62.1 °F 59.0 °F 90% 29.88 in 4.0 mi South 8.1 mph - 0.09 in Rain Heavy Rain